Location: Unspecified
(0.0000°N, 0.0000°E)
Time: 08:20:47
(UTC+00:00)

USA 72 - Visible Passes

Search period start: 25 April 2019 00:00
Search period end: 05 May 2019 00:00
Orbit: 2593 x 11653 km, 63.3° (Epoch: 18 January)

Date Brightness Start Highest point End Pass type
(mag) Time Alt. Az. Time Alt. Az. Time Alt. Az.
25 Apr 9.3 01:30:31 43° NW 01:30:31 43° NW 02:27:28 10° N visible
25 Apr 9.1 23:11:23 55° NE 23:11:23 55° NE 23:54:20 10° NNE visible
26 Apr 10.0 03:46:41 10° NW 03:56:24 10° NW 04:08:35 10° NNW visible
26 Apr 9.0 20:52:13 16° ENE 20:52:13 16° ENE 21:02:55 10° ENE visible
27 Apr 9.3 01:12:23 45° NW 01:12:23 45° NW 02:09:22 10° N visible
27 Apr 9.1 22:53:09 54° NE 22:53:09 54° NE 23:35:39 10° NNE visible
28 Apr 9.9 03:20:23 10° WNW 03:35:53 12° NW 03:58:53 10° NNW visible
28 Apr 9.0 20:33:54 14° ENE 20:33:54 14° ENE 20:42:21 10° ENE visible
29 Apr 9.2 00:54:02 47° NW 00:54:02 47° NW 01:51:13 10° N visible
29 Apr 9.0 22:34:42 54° NE 22:34:42 54° NE 23:16:56 10° NNE visible
30 Apr 9.9 02:57:26 10° WNW 03:15:44 13° NW 03:45:35 10° NNW visible
30 Apr 9.0 20:15:19 13° ENE 20:15:19 13° ENE 20:21:27 10° ENE visible
01 May 9.2 00:35:26 50° NW 00:35:26 50° NW 01:33:03 10° N visible
01 May 8.9 21:45:11 10° S 22:15:59 53° NE 22:58:11 10° NNE visible
02 May 9.9 02:36:05 10° WNW 02:55:52 14° NW 03:30:48 10° NNW visible
02 May 8.9 19:56:28 11° ENE 19:56:28 11° ENE 20:00:05 10° ENE visible
03 May 9.1 00:16:34 52° NW 00:16:34 52° NW 01:14:51 10° N visible
03 May 8.8 21:27:25 10° S 21:56:58 53° NE 22:39:23 10° NNE visible
04 May 9.8 02:17:02 11° WNW 02:36:13 16° NW 03:15:10 10° N visible
04 May 8.9 19:37:18 10° ENE 19:37:18 10° ENE 19:37:57 10° ENE visible
